Regional Weather Roundup
Issued by NWS

Home | Current Version | Previous Version | Text Only | Print | Product List | Glossary On
Versions: 1 2 3 4 5 6 7 8 9 10 11 12 13 14 15 16 17 18 19 20 21 22 23 24 25 26 27
000
ASUS45 KBOU 211410
RWRCO

WEATHER ROUNDUP FOR COLORADO
NATIONAL WEATHER SERVICE DENVER/BOULDER CO
800 AM MDT MON MAY 21 2018

NOTE: "FAIR" INDICATES FEW OR NO CLOUDS BELOW 12000 FEET WITH NO
SIGNIFICANT WEATHER AND/OR OBSTRUCTIONS TO VISIBILITY.

COZ001>005-013-030-031-211500-
...NORTHWEST COLORADO...

CITY           SKY/WX    TMP DP  RH WIND       PRES   REMARKS
CRAIG          FAIR      45  40  82 CALM      30.07S
HAYDEN         FAIR      48  37  65 E9        30.10R
MEEKER         FAIR      46  38  73 CALM      30.07S
RANGELY        FAIR      50  38  62 E8        30.03R
RABBIT EARS PA FAIR      41  27  56 CALM      30.27R
STEAMBOAT SPGS FAIR      43  36  76 CALM      30.10S
WALDEN         FAIR      39  32  75 CALM      30.19R
$$

COZ006>008-011-211500-
...WEST CENTRAL VALLEYS...

CITY           SKY/WX    TMP DP  RH WIND       PRES   REMARKS
GRAND JUNCTION FAIR      59  37  44 E18       29.99R
MONTROSE       FAIR      51  31  46 S7        30.07S
EAGLE          FAIR      41  31  67 CALM      30.18S
RIFLE          FAIR      49  38  65 CALM      30.06S
DELTA          FAIR      56  32  40 CALM      30.05R
NUCLA          NOT AVBL
$$

COZ017>023-064>068-211500-
...SOUTHWEST COLORADO...

CITY           SKY/WX    TMP DP  RH WIND       PRES   REMARKS
DURANGO        FAIR      58  39  49 E5        30.14R
CORTEZ         FAIR      65  35  33 SE17      30.06R
PAGOSA SPRINGS FAIR      56  40  54 CALM      30.21S
TELLURIDE      FAIR      51  30  44 E7        30.24R
WOLF CREEK PAS CLOUDY    34  34 100 SW13G18   30.43R WCI  25
$$

COZ009-010-012-014-032>034-037-058>063-211500-
...CENTRAL COLORADO...

CITY           SKY/WX    TMP DP  RH WIND       PRES   REMARKS
ASPEN          FAIR      46  30  53 N5        30.15R
BUENA VISTA    FAIR      46  36  68 NW6       30.24S
COPPER MTN     FAIR      41  27  56 S14       30.36S
BERTHOUD PASS  FAIR      36  27  69 W17       30.38S
COTTONWOOD PAS FAIR      45  39  81 CALM      30.29S
GUNNISON       FAIR      40  32  73 CALM      30.23R
GRANBY         FAIR      38  34  87 CALM      30.22S
KREMMLING      FAIR      45  36  70 CALM      30.20S
LEADVILLE      CLOUDY    35  31  85 CALM      30.29R
MONARCH PASS   FAIR      34  32  93 MISG      30.48R
SALIDA         FAIR      46  38  73 CALM      30.30
SUNLIGHT       FAIR      41  23  48 S7        30.31S
WILKERSON PASS FAIR      36  32  87 SW16G24   30.36S
$$

COZ069>075-211500-
...SAN LUIS VALLEY/SANGRE DE CRISTO MOUNTAINS...

CITY           SKY/WX    TMP DP  RH WIND       PRES   REMARKS
ALAMOSA        FAIR      45  37  73 NE6       30.23R
DEL NORTE      FAIR      46  33  62 W10       30.24F
LA VETA PASS   CLOUDY    39  36  87 SW10      30.44R
SAGUACHE       NOT AVBL
$$

COZ035-036-038>040-211500-
...NORTHERN COLORADO FRONT RANGE...

CITY           SKY/WX    TMP DP  RH WIND       PRES   REMARKS
DENVER INTL AP FAIR      49  45  86 W5        30.04R FOG
AURORA         PTSUNNY   49  49 100 CALM      30.05S
FRONT RANGE AP MOSUNNY   50  50 100 W5        30.05F
ERIE MUNI ARPT FAIR      49  48  95 CALM      30.09S
BOULDER MUN AP FAIR      50  46  87 CALM      30.03S
CENTENNIAL     PTSUNNY   58  41  53 W12       30.05S
BROOMFIELD     MOSUNNY   50  46  87 CALM      30.05S
FORT COLLINS   FAIR      51  46  83 CALM      30.03S
LONGMONT       NOT AVBL
$$

COZ041-046-047-076>085-087-088-211500-
...PIKES PEAK/PALMER DIVIDE AND SOUTHERN FOOTHILLS...

CITY           SKY/WX    TMP DP  RH WIND       PRES   REMARKS
COLO. SPRINGS  PTSUNNY   56  44  64 NE6       30.10S
A. F. ACADEMY  FAIR      47  45  91 NW5       30.11S
SCHRIEVER AFB  NOT AVBL
CHEYENNE MTN   PTSUNNY   56  40  55 CALM      30.07S
ELLICOTT         N/A    N/A N/A N/A SW9       30.08F
FALCON         FAIR      54  42  63 SE5       30.13S
FORT CARSON    FAIR      52  43  72 N7        30.07S
LIMON          FAIR      51  46  83 SE7       30.06R
MONUMENT HILL  FAIR      54  39  58 S7        30.12S
CANON CITY     FAIR      55  45  67 W16G28    30.08S
WALSENBURG     FAIR      57  46  67 W13       30.12S
TRINIDAD       FAIR      57  49  74 W15G25    30.11S
$$

COZ042>045-048>051-090-091-211500-
...NORTHEAST COLORADO...

CITY           SKY/WX    TMP DP  RH WIND       PRES   REMARKS
GREELEY ARPT   FAIR      48  46  93 NW5       30.03S
AKRON          FAIR      51  48  89 S10       30.03R
BURLINGTON     CLOUDY    51  50  96 S20       30.05F FOG
WRAY           CLOUDY    52  52 100 S12       30.05F
YUMA           CLOUDY    50  41  71 SE14      30.04S
STERLING       FAIR      54  50  87 S7        30.00S
HOLYOKE        CLOUDY    54  52  94 S13       30.05F
FORT MORGAN    FAIR      51  45  80 SW5       30.02S
$$

COZ086-089-092>099-211500-
...SOUTHEAST COLORADO...

CITY           SKY/WX    TMP DP  RH WIND       PRES   REMARKS
PUEBLO         FAIR      55  46  71 W5        30.06S
LA JUNTA       FAIR      60  48  64 CALM      30.05S
LAMAR          FAIR      59  50  72 E7        30.04R
SPRINGFIELD      N/A     64  51  62 SW22G31   30.08S
$$




USA.gov is the U.S. government's official web portal to all federal, state and local government web resources and services.